STARLINK-37794, 69310

Orbit data source: Space-Track

STARLINK-37794, 69310 is a payload satellite owned by SpaceX/Seattle (US) in SSO that was launched on Sat, 30 May 2026 UTC via an FALCON 9 launch vehicle from the Air Force Western Test Range (AFWTR). Payload-class satellites include a variety of spacecraft equipped with specific instruments for various scientific and technological missions. These include communications satellites like Starlink; space stations such as the ISS; scientific satellites like the Hubble; Earth observation satellites from companies like Planet Labs, Umbra, and HawkEye 360; GPS; miniature CubeSats for education and research; and military/defense satellites.

Loading next visibility...
Identifier
69310, 2026-119Q
Orbit
SSO
Country
Flag of USUS
Related business
Manufacturer
SpaceX/Seattle
Mission
Operational Commercial Communications
Bus & Motor
STARLINK V2MO, Unknown motor
Mass
575 kg wet, ~530 kg dry
Launch date (UTC)
2026-05-30 (4 months ago)
Launch vehicle
FALCON 9
Launch site
Air Force Western Test Range (AFWTR)
Object type
Payload
Rocket body
Debris
Shape & HBR
Box + 1 Pan, 17.7 m
Radar Cross Section
41.120 m², Large (>1 m²)

Expand to show TLE details & history
Last TLE update: 9 hours ago

TLE from 9 hours ago
0 STARLINK-37794
1 69310U 26119Q   26263.88400886  .00005782  00000-0  18121-3 0  9997
2 69310  97.2828 288.6353 0001404 128.6248 231.5120 15.33457857 18722
Epoch: 2026-09-20T21:12Z
TLE epoch observation values (Epoch: 2026-09-20T21:12:58.365Z)
Latitude
-0.00009°
Longitude
-29.37967°
Altitude
469.215 km
Speed
7.631 km/s
True Right ascension
19h 14m 32s
True Declination
0° 00' 00"
Sunlit
Object was in daylight at epoch
Visualization orbit readout
Latitude
Unknown
Longitude
Unknown
Altitude
Unknown
Speed
Unknown
Apparent Right ascension
Unknown
Apparent Declination
Unknown
Sunlit
N/A
Visualization observer readout
Local Sidereal Time
23:11:01
Azimuth
Unknown
Elevation
Unknown
Doppler factor
Unknown
Orbital elements
Apogee altitude
463.408 km
Perigee altitude
461.487 km
Semi-major axis
6,840.585 km
Eccentricity
0.00014
Inclination
97.2828°
RAAN
288.6353°
Arg. of periapsis
128.6248°
True anomaly
231.49941°
Mean anomaly
231.512°
Eccentric anomaly
231.5057°
Mean motion
3.83622 °/min
Orbital period
93.84 mins
BSTAR
0.00018121
Loading maneuver chart data...
Computing Atmospheric mass density...
Loading historical data...
Loading historical data...
Loading historical data...
Loading historical data...
Loading historical data...
Loading historical data...
Loading historical data...

Documentation

Showing up to 5 results
|